Вернуться в каталог

ATLAS 5 CENTAUR DEB

LostHEO
NORAD 43957·DEBRIS·🇺🇸 United States

Запущен Sep 17, 2014 с Cape Canaveral Space Force Station

Loading…

Ближайшие Пролёты (ближайшие 24 часа)

TLE

УстаревшееSource: Space-Track

Эпоха: Nov 2, 2023, 04:54 UTC

1 43957U 14055L   23306.20455341 -.00000089  00000-0  00000+0 0  9998
2 43957  20.9516 235.9615 4959704  13.8642 355.8531  1.90006745 35859

Отслеживайте ATLAS 5 CENTAUR DEB в реальном времени с AllMySat

Download on the App Store